Iron Station, NC

5:34 AM EDT on September 30, 2016 (GMT -0400)
Lincolnton-Lincoln County Regional

Weather History for KIPJ - March, 2013

Change the Weather History Date:

Tuesday, March 5, 2013

  Actual Average (KCLT) Record (KCLT)
Temperature  
Mean Temperature 40 °F 48 °F  
Max Temperature 48 °F 60 °F 84 °F (1955)
Min Temperature 33 °F 37 °F 12 °F (1960)
Degree Days  
Heating Degree Days 24 17  
Month to date heating degree days 87  
Since 1 July heating degree days 2786  
Cooling Degree Days 0 0  
Month to date cooling degree days 0  
Year to date cooling degree days 0  
Moisture  
Dew Point 36 °F    
Average Humidity 82    
Maximum Humidity 100    
Minimum Humidity 49    
Precipitation  
Precipitation 0.45 in 0.14 in 1.65 in (1984)
Month to date precipitation 0.66  
Year to date precipitation 7.39  
Snow  
Snow 0.00 in 0.00 in 1.70 in (1912)
Month to date snowfall 0.1  
Since 1 July snowfall 3.8  
Snow Depth -    
Sea Level Pressure  
Sea Level Pressure 29.87 in    
Wind  
Wind Speed 2 mph (WNW)    
Max Wind Speed 9 mph    
Max Gust Speed -    
Visibility 8 miles    
Events Rain    
T = Trace of Precipitation, MM = Missing Value Source: NWS Daily Summary

Daily Weather History Graph

Daily Weather History Graph

Search for Another Location

Airport or City:

Trip Planner

Search our weather history database for the weather conditions in past years. The results will help you decide how hot, cold, wet, or windy it might be!

Date:

Astronomy

Mar. 05, 2013 Rise Set
Actual Time 6:48 AM EST 6:23 PM EST
Civil Twilight 6:23 AM EST 6:49 PM EST
Nautical Twilight 5:53 AM EST 7:18 PM EST
Astronomical Twilight 5:24 AM EST 7:48 PM EST
Moon 1:50 AM EST (3/5) 12:10 PM EST (3/5)
Length of Visible Light 12h 25m
Length of Day
11h 34m
Last Quarter, 41% of the Moon is Illuminated
Mar 5
Last Quarter
Mar 11
New
Mar 19
First Quarter
Mar 27
Full
Apr 3
Last Quarter

Hourly Weather History & Observations

Time (EST) Temp. Windchill Dew Point Humidity Pressure Visibility Wind Dir Wind Speed Gust Speed Precip Events Conditions
12:15 AM 39.2 °F 37.0 °F 26.6 °F 61% 30.04 in 10.0 mi WSW 3.5 mph - N/A   Clear
12:35 AM 41.0 °F - 23.0 °F 49% 30.04 in 10.0 mi Calm Calm - N/A   Clear
12:55 AM 41.0 °F - 26.6 °F 57% 30.05 in 10.0 mi Calm Calm - N/A   Mostly Cloudy
1:35 AM 37.4 °F - 26.6 °F 65% 30.05 in 10.0 mi Calm Calm - N/A   Clear
1:55 AM 37.4 °F 32.8 °F 26.6 °F 65% 30.06 in 10.0 mi WSW 5.8 mph - N/A   Clear
2:15 AM 37.4 °F 33.8 °F 23.0 °F 56% 30.05 in 10.0 mi WSW 4.6 mph - N/A   Clear
2:35 AM 37.4 °F 34.9 °F 23.0 °F 56% 30.05 in 10.0 mi WSW 3.5 mph - N/A   Clear
3:15 AM 33.8 °F - 26.6 °F 75% 30.02 in 10.0 mi Calm Calm - N/A   Clear
3:35 AM 33.8 °F - 26.6 °F 75% 30.02 in 10.0 mi Calm Calm - N/A   Clear
3:55 AM 33.8 °F - 28.4 °F 81% 30.02 in 10.0 mi Calm Calm - N/A   Clear
4:15 AM 33.8 °F - 26.6 °F 75% 30.01 in 10.0 mi Calm Calm - N/A   Clear
4:35 AM 33.8 °F - 26.6 °F 75% 30.01 in 10.0 mi Calm Calm - N/A   Clear
4:55 AM 35.6 °F 32.8 °F 24.8 °F 65% 30.01 in 10.0 mi WSW 3.5 mph - N/A   Clear
5:15 AM 33.8 °F - 28.4 °F 81% 30.01 in 10.0 mi Calm Calm - N/A   Scattered Clouds
5:35 AM 35.6 °F - 26.6 °F 70% 30.00 in 10.0 mi Calm Calm - N/A   Scattered Clouds
5:55 AM 35.6 °F - 28.4 °F 75% 30.01 in 10.0 mi Calm Calm - N/A   Scattered Clouds
6:15 AM 35.6 °F - 28.4 °F 75% 30.01 in 10.0 mi Calm Calm - N/A   Mostly Cloudy
6:35 AM 37.4 °F - 28.4 °F 70% 30.01 in 10.0 mi Calm Calm - N/A   Overcast
6:55 AM 39.2 °F - 26.6 °F 61% 30.00 in 10.0 mi Calm Calm - N/A   Overcast
7:15 AM 41.0 °F - 26.6 °F 57% 30.00 in 10.0 mi Calm Calm - N/A   Overcast
7:35 AM 41.0 °F 39.0 °F 26.6 °F 57% 29.99 in 10.0 mi SW 3.5 mph - N/A   Overcast
7:55 AM 42.8 °F 41.1 °F 28.4 °F 57% 29.99 in 10.0 mi WSW 3.5 mph - N/A   Overcast
8:15 AM 42.8 °F 40.1 °F 28.4 °F 57% 29.99 in 10.0 mi SW 4.6 mph - N/A   Overcast
8:35 AM 44.6 °F - 28.4 °F 53% 30.00 in 10.0 mi Calm Calm - N/A   Overcast
8:55 AM 42.8 °F - 33.8 °F 70% 30.00 in 7.0 mi Calm Calm - N/A Rain Light Rain
9:15 AM 41.0 °F - 37.4 °F 87% 29.99 in 7.0 mi Calm Calm - 0.01 in Rain Light Rain
9:35 AM 41.0 °F - 37.4 °F 87% 29.99 in 10.0 mi Calm Calm - 0.01 in   Light Drizzle
9:55 AM 41.0 °F - 37.4 °F 87% 29.99 in 10.0 mi Calm Calm - 0.01 in Rain Light Rain
10:15 AM 39.2 °F - 37.4 °F 93% 30.00 in 5.0 mi Calm Calm - 0.02 in Rain Rain
10:35 AM 41.0 °F - 37.4 °F 87% 29.98 in 4.0 mi Calm Calm - 0.05 in Rain Rain
10:55 AM 41.0 °F - 39.2 °F 93% 29.97 in 5.0 mi Calm Calm - 0.06 in Rain Light Rain
11:15 AM 41.0 °F - 41.0 °F 100% 29.97 in 7.0 mi Calm Calm - N/A   Overcast
11:35 AM 42.8 °F - 41.0 °F 93% 29.96 in 7.0 mi Calm Calm - N/A   Overcast
11:55 AM 42.8 °F - 41.0 °F 93% 29.95 in 7.0 mi Calm Calm - N/A   Overcast
12:15 PM 42.8 °F - 42.8 °F 100% 29.94 in 5.0 mi Calm Calm - N/A   Overcast
12:35 PM 42.8 °F - 42.8 °F 100% 29.93 in 5.0 mi Calm Calm - N/A   Overcast
12:55 PM 44.6 °F - 42.8 °F 93% 29.91 in 5.0 mi Calm Calm - N/A Rain Light Rain
1:15 PM 44.6 °F - 42.8 °F 93% 29.90 in 7.0 mi Calm Calm - N/A   Overcast
1:35 PM 46.4 °F - 42.8 °F 87% 29.89 in 10.0 mi Calm Calm - N/A   Overcast
1:55 PM 46.4 °F 44.3 °F 41.0 °F 81% 29.88 in 10.0 mi West 4.6 mph - N/A   Overcast
2:15 PM 46.4 °F - 41.0 °F 81% 29.86 in 10.0 mi Calm Calm - N/A   Overcast
2:35 PM 46.4 °F 45.2 °F 41.0 °F 81% 29.85 in 10.0 mi West 3.5 mph - N/A   Overcast
2:55 PM 46.4 °F - 41.0 °F 81% 29.85 in 10.0 mi Calm Calm - N/A   Overcast
3:15 PM 46.4 °F - 41.0 °F 81% 29.85 in 10.0 mi Calm Calm - N/A   Overcast
3:35 PM 46.4 °F - 41.0 °F 81% 29.83 in 10.0 mi Calm Calm - N/A   Overcast
3:55 PM 46.4 °F 45.2 °F 41.0 °F 81% 29.81 in 10.0 mi WNW 3.5 mph - N/A   Overcast
4:15 PM 48.2 °F - 41.0 °F 76% 29.79 in 10.0 mi WNW 3.5 mph - N/A   Overcast
4:35 PM 48.2 °F - 41.0 °F 76% 29.78 in 10.0 mi North 5.8 mph - N/A   Overcast
4:55 PM 46.4 °F 43.5 °F 42.8 °F 87% 29.76 in 10.0 mi NNW 5.8 mph - N/A   Overcast
5:15 PM 46.4 °F 43.5 °F 42.8 °F 87% 29.76 in 10.0 mi NNW 5.8 mph - N/A Rain Rain
5:35 PM 44.6 °F 41.4 °F 42.8 °F 93% 29.72 in 10.0 mi NNW 5.8 mph - N/A   Overcast
5:55 PM 44.6 °F 41.4 °F 42.8 °F 93% 29.70 in 10.0 mi NE 5.8 mph - N/A   Mostly Cloudy
6:15 PM 44.6 °F 42.2 °F 42.8 °F 93% 29.68 in 10.0 mi NNW 4.6 mph - N/A   Overcast
6:35 PM 44.6 °F 42.2 °F 42.8 °F 93% 29.67 in 10.0 mi NW 4.6 mph - 0.01 in Rain Light Rain
6:55 PM 44.6 °F - 42.8 °F 93% 29.68 in 5.0 mi Calm Calm - 0.04 in Rain Rain
7:15 PM 44.6 °F 40.7 °F 42.8 °F 93% 29.69 in 2.5 mi West 6.9 mph - 0.06 in Rain Rain
7:35 PM 44.6 °F 40.2 °F 42.8 °F 93% 29.70 in 1.8 mi NW 8.1 mph - 0.17 in Rain Heavy Rain
7:55 PM 42.8 °F 38.0 °F 42.8 °F 100% 29.66 in 2.0 mi North 8.1 mph - 0.33 in   Overcast
8:15 PM 42.8 °F 39.3 °F 42.8 °F 100% 29.65 in 7.0 mi NW 5.8 mph - 0.01 in   Overcast
8:35 PM 42.8 °F 39.3 °F 41.0 °F 93% 29.66 in 7.0 mi NW 5.8 mph - 0.01 in   Overcast
8:55 PM 42.8 °F 39.3 °F 41.0 °F 93% 29.66 in 10.0 mi NW 5.8 mph - 0.01 in   Overcast
9:15 PM 42.8 °F 41.1 °F 41.0 °F 93% 29.65 in 7.0 mi NW 3.5 mph - N/A   Overcast
9:35 PM 41.0 °F - 41.0 °F 100% 29.64 in 10.0 mi Calm Calm - N/A   Overcast
9:55 PM 41.0 °F 39.0 °F 41.0 °F 100% 29.62 in 7.0 mi North 3.5 mph - N/A   Overcast
10:15 PM 41.0 °F - 41.0 °F 100% 29.63 in 5.0 mi Calm Calm - N/A   Overcast
10:35 PM 41.0 °F - 41.0 °F 100% 29.62 in 7.0 mi Calm Calm - N/A   Overcast
10:55 PM 41.0 °F 35.2 °F 41.0 °F 100% 29.64 in 7.0 mi NW 9.2 mph - N/A   Overcast
11:15 PM 41.0 °F - 41.0 °F 100% 29.62 in 7.0 mi Calm Calm - N/A Rain Light Rain
11:35 PM 41.0 °F - 41.0 °F 100% 29.61 in 10.0 mi Calm Calm - N/A   Overcast
11:55 PM 41.0 °F - 41.0 °F 100% 29.62 in 4.0 mi Calm Calm - N/A Rain Light Rain